This is the latest recevied weather packets stored in our database for station/object SV9TNF-52. If no packets are shown the sender has not sent any weather packets the latest 10 day(s).
| Time | Temp. | Humidity | Pressure | Rain* | Wind** | Luminosity | Snow |
|---|---|---|---|---|---|---|---|
| 1787835693 | 33.33° C | 58% | 1020 hPa | 0 mm | 5.81 m/s, 344° | - | - |
| 1787835393 | 33.89° C | 54% | 1020.3 hPa | 0 mm | 6.26 m/s, 337° | - | - |
| 1787835094 | 34.44° C | 51% | 1020.3 hPa | 0 mm | 3.13 m/s, 318° | - | - |
| 1787834793 | 33.89° C | 52% | 1020.3 hPa | 0 mm | 4.02 m/s, 255° | - | - |
| 1787834493 | 33.33° C | 53% | 1020.3 hPa | 0 mm | 4.47 m/s, 257° | - | - |
| 1787834193 | 33.33° C | 54% | 1020.3 hPa | 0 mm | 4.02 m/s, 248° | - | - |
| 1787833893 | 33.33° C | 54% | 1020.7 hPa | 0 mm | 4.02 m/s, 226° | - | - |
| 1787833592 | 33.33° C | 54% | 1020.7 hPa | 0 mm | 4.02 m/s, 267° | - | - |
| 1787833292 | 33.33° C | 55% | 1020.7 hPa | 0 mm | 3.13 m/s, 294° | - | - |
| 1787832993 | 33.33° C | 58% | 1020.7 hPa | 0 mm | 3.58 m/s, 331° | - | - |
| 1787832692 | 32.78° C | 57% | 1020.7 hPa | 0 mm | 6.26 m/s, 356° | - | - |
| 1787832392 | 32.78° C | 58% | 1020.7 hPa | 0 mm | 5.81 m/s, 264° | - | - |
| 1787832092 | 32.78° C | 57% | 1020.7 hPa | 0 mm | 4.92 m/s, 227° | - | - |
| 1787831792 | 33.33° C | 57% | 1020.7 hPa | 0 mm | 5.81 m/s, 305° | - | - |
| 1787831492 | 32.78° C | 57% | 1020.7 hPa | 0 mm | 4.47 m/s, 267° | - | - |
| 1787831192 | 32.78° C | 57% | 1020.7 hPa | 0 mm | 5.81 m/s, 4° | - | - |
| 1787830892 | 32.78° C | 58% | 1020.7 hPa | 0 mm | 5.81 m/s, 266° | - | - |
| 1787830592 | 32.78° C | 56% | 1020.7 hPa | 0 mm | 8.49 m/s, 304° | - | - |
| 1787830291 | 33.33° C | 56% | 1020.7 hPa | 0 mm | 5.36 m/s, 338° | - | - |
| 1787829991 | 33.33° C | 55% | 1020.7 hPa | 0 mm | 4.92 m/s, 257° | - | - |
| 1787829692 | 33.33° C | 56% | 1020.7 hPa | 0 mm | 2.24 m/s, 23° | - | - |
| 1787829391 | 31.67° C | 57% | 1020.7 hPa | 0 mm | 7.6 m/s, 12° | - | - |
| 1787829092 | 32.22° C | 57% | 1020.7 hPa | 0 mm | 4.92 m/s, 356° | - | - |
| 1787828791 | 31.67° C | 61% | 1020.7 hPa | 0 mm | 7.15 m/s, 334° | - | - |
| 1787828491 | 31.67° C | 61% | 1020.7 hPa | 0 mm | 5.36 m/s, 132° | - | - |
* Rain latest hour (hover to see other rain measurements)
** Current wind speed in m/s (hover to see current wind gust speed)